User: anonymous   Login
Location: Ostrava
(49.8330°N, 18.2830°E)
Time: 00:02:11
(UTC+02:00)
Language:

Vanguard 2 Rocket - Orbit

View from above orbital plane
View from above orbital plane
View from above satellite
View from above satellite

Ground track
Ground track

The orbit data is extracted from the following two-line orbital elements,

1 00012U 59001B   15090.15940460  .00000941  00000-0  55813-3 0  9991
2 00012 032.8968 174.9194 1668634 142.1215 230.9401 11.43560862304299
Epoch (UTC): 31 March 2015 03:49:32
Eccentricity: 0.1668634
inclination: 32.8968°
perigee height: 555 km
apogee height: 3332 km
right ascension of ascending node: 174.9194°
argument of perigee: 142.1215°
revolutions per day: 11.43560862
mean anomaly at epoch: 230.9401°
orbit number at epoch: 30429

The dashed part of the orbit path shows where the satellite is in the earth's shadow,  

DLR